This is the latest recevied weather packets stored in our database for station/object K1RFS. If no packets are shown the sender has not sent any weather packets the latest 10 day(s).
| Time | Temp. | Humidity | Pressure | Rain* | Wind** | Luminosity | Snow |
|---|---|---|---|---|---|---|---|
| 1787950375 | 30° C | 31% | 1003.3 hPa | 0 mm | - | 128 W/m² | - |
| 1787950071 | 30.56° C | 30% | 1003.4 hPa | 0 mm | - | 165 W/m² | - |
| 1787949767 | 31.11° C | 29% | 1003.7 hPa | 0 mm | - | 563 W/m² | - |
| 1787949466 | 31.11° C | 30% | 1003.7 hPa | 0 mm | - | 299 W/m² | - |
| 1787949161 | 31.67° C | 29% | 1003.7 hPa | 0 mm | - | 604 W/m² | - |
| 1787948857 | 32.22° C | 29% | 1003.8 hPa | 0 mm | - | 634 W/m² | - |
| 1787948557 | 31.67° C | 28% | 1003.8 hPa | 0 mm | - | 650 W/m² | - |
| 1787948252 | 31.11° C | 29% | 1003.6 hPa | 0 mm | - | 605 W/m² | - |
| 1787947952 | 31.11° C | 29% | 1004 hPa | 0 mm | - | 600 W/m² | - |
| 1787947646 | 31.11° C | 29% | 1004 hPa | 0 mm | - | 602 W/m² | - |
| 1787947346 | 31.67° C | 29% | 1004 hPa | 0 mm | - | 620 W/m² | - |
| 1787947045 | 31.11° C | 30% | 1004.2 hPa | 0 mm | - | 620 W/m² | - |
| 1787946743 | 30.56° C | 30% | 1004.5 hPa | 0 mm | - | 610 W/m² | - |
| 1787946438 | 31.11° C | 30% | 1004.5 hPa | 0 mm | - | 590 W/m² | - |
| 1787946137 | 30.56° C | 30% | 1004.6 hPa | 0 mm | - | 601 W/m² | - |
| 1787945832 | 30° C | 31% | 1004.6 hPa | 0 mm | - | 565 W/m² | - |
| 1787945533 | 30° C | 33% | 1004.6 hPa | 0 mm | - | 587 W/m² | - |
| 1787945223 | 30° C | 33% | 1004.8 hPa | 0 mm | - | 581 W/m² | - |
| 1787944921 | 30.56° C | 32% | 1004.9 hPa | 0 mm | - | 622 W/m² | - |
| 1787944620 | 30° C | 34% | 1004.9 hPa | 0 mm | - | 655 W/m² | - |
| 1787944315 | 28.33° C | 35% | 1005.2 hPa | 0 mm | - | 555 W/m² | - |
| 1787944011 | 27.78° C | 37% | 1005 hPa | 0 mm | - | 246 W/m² | - |
| 1787943706 | 27.22° C | 38% | 1005.3 hPa | 0 mm | - | 224 W/m² | - |
| 1787943401 | 27.22° C | 37% | 1005 hPa | 0 mm | - | 155 W/m² | - |
| 1787943097 | 27.22° C | 38% | 1005.4 hPa | 0 mm | - | 144 W/m² | - |
* Rain latest hour (hover to see other rain measurements)
** Current wind speed in m/s (hover to see current wind gust speed)